Regional Weather Roundup
Issued by NWS Portland, ME

Current Version | Previous Version | Graphics & Text | Print | Product List | Glossary On
Versions: 1 2 3 4 5 6 7 8 9 10 11 12 13 14 15 16 17 18 19 20 21 22 23 24 25 26 27 28 29 30 31 32 33 34 35 36 37 38 39 40 41 42 43 44 45 46 47 48 49 50
000
ASUS41 KGYX 271410
RWRGYX
WEATHER ROUNDUP FOR MAINE AND NEW HAMPSHIRE
NATIONAL WEATHER SERVICE GRAY ME
900 AM EST THU NOV 27 2014

MEZ002-005-006-010-012-015-018-020-021-024-026-027-029-271500-
MAINE

CITY           SKY/WX    TMP DP  RH WIND       PRES   REMARKS
PORTLAND       MOSUNNY   33  26  75 NW14      29.88R
SANFORD        MOSUNNY   30  25  80 NW6       29.89R
BAR HARBOR     CLOUDY    30  30 100 NW14G22   29.75R WCI  20
WISCASSET      SUNNY     31  25  78 N8        29.85R
ROCKLAND       MOSUNNY   30  25  80 NW8       29.80R
FRYEBURG         N/A     32  24  72 NW5       29.88R
LEWISTONAUBURN SUNNY     30  25  80 NW9       29.85R
AUGUSTA        MIX PCPN  28  20  71 NW16G25   29.84R WCI  16
WATERVILLE     SUNNY     28  19  69 N13G22    29.81R WCI  18
BANGOR         PTSUNNY   29  24  82 N18       29.79R WCI  16
GREENVILLE       N/A     22  17  81 N16G23    29.76R WCI   8
MILLINOCKET    LGT SNOW  27  21  78 N13G25    29.81R WCI  16
HOULTON        LGT SNOW  25  22  88 N18G25    29.74R VSB 1   WCI  11
PRESQUE ISLE   CLOUDY    25  19  80 N17G24    29.78S WCI  11
FRENCHVILLE    LGT SNOW  20  18  92 N17G26    29.80S FOG     WCI   5
CARIBOU        LGT SNOW  24  20  84 N14G20    29.79R VSB 3/4 WCI  12
$$

NHZ002-005-008-009-011-012-014-271500-
NEW HAMPSHIRE

CITY           SKY/WX    TMP DP  RH WIND       PRES   REMARKS
PORTSMOUTH     MOSUNNY   33  29  85 W6        29.88R
ROCHESTER      PTSUNNY   32  30  92 CALM      29.88R
NASHUA           N/A     33  30  89 CALM      29.92R
MANCHESTER     PTSUNNY   32  27  81 NW5       29.90R
CONCORD          N/A     30  26  85 NW3       29.90R
LACONIA        CLOUDY    30  25  80 CALM      29.86R
PLYMOUTH       FAIR      30  27  87 W9        29.89R
BERLIN         CLOUDY    27  19  72 N3        29.87R
WHITEFIELD     FLURRIES  26  20  77 VRB5      29.90R
JAFFREY          N/A     28  24  85 CALM      29.89R
LEBANON        CLOUDY    30  23  75 NW8       29.93R
MT WASHINGTON  DRFTSNOW  12  12 100 N36G43      N/A  VSB 1/16WCI -11
$$

VTZ005-007-008-271500-
VERMONT

CITY           SKY/WX    TMP DP  RH WIND       PRES   REMARKS
ST JOHNSBURY     N/A     28  22  78 MISG      29.92R
MONTPELIER     CLOUDY    24  20  84 N5        29.97R
BURLINGTON     CLOUDY    27  21  78 N8        30.01R
$$

MAZ007-012-024-CTZ003-RIZ002-NYZ038-NYZ072-271500-
SOUTHERN NEW ENGLAND AND NY

CITY           SKY/WX    TMP DP  RH WIND       PRES   REMARKS
BOSTON         PTSUNNY   35  30  82 NW9       29.93R
WORCESTER      CLOUDY    30  27  88 W14       29.89R WCI  19
NANTUCKET      PTSUNNY   41  35  79 NW13      29.92R
PROVIDENCE     PTSUNNY   35  30  82 W8        29.95R
HARTFORD       PTSUNNY   33  27  78 CALM      29.96R
ALBANY         CLOUDY    31  26  82 NW8       30.01R
NEW YORK CITY  CLOUDY    37  31  78 NW7       29.99R
$$

ANZ081-ANZ082-ANZ150-NHZ014-MEZ023>029-271500-
COASTAL MARINE OBSERVATIONS

STATION/POSITION TIME  TEMP    WIND        PRES    WAVE
                       AIR SEA DIR/SP/G            HT/PER
                 (UTC) (F)     (DEG/KT/KT) (MB)    (FT/S)
MOUNT DESERT ROC 1400   33                 1006.3R
MATINICUS ROCK   1400          350/ 29/ 33 1008.0R
PORTLAND WX BUOY 1350   34 49  340/ 17/ 21 1011.2R   6/10
WELLS            1300   31 40  320/  9/ 11 1010.3R
ISLE OF SHOALS   1400   35     350/ 18/ 22 1011.6R
JEFFREYS LEDGE   1321      51                N/A    13/10
CASHES LEDGE BUO 1350   36 50  350/ 21/ 27 1008.8R  13/10
$$

.............KEY..............
   WCI - WIND CHILL
   TC  - TEMPERATURE IN CELSIUS
   VSB - VISIBILITY IN MILES
   HX  - HEAT INDEX
   FAIR- INDICATES FEW OR NO CLOUDS BELOW 12,000 FT, WITH NO
         SIGNIFICANT WEATHER AND/OR OBSTRUCTIONS TO VISIBILITY.




USA.gov is the U.S. government's official web portal to all federal, state and local government web resources and services.